Location: Newark
(52.2090°N, 4.1550°W)
Time: 13:00:03
(UTC+00:00)

Explorer 7 - Pass Details

Date: 20 September 2019
Orbit: 485 x 680 km, 50.3° (Epoch: 20 October)

Event Time Altitude Azimuth Distance (km) Brightness Sun altitude
Rises 00:06:17 0° 236° (SW) 2,861 - -36.5°
Reaches altitude 10° 00:08:35 10° 230° (SW) 1,990 - -36.5°
Maximum altitude 00:12:58 46° 158° (SSE) 868 - -36.5°
Drops below altitude 10° 00:17:35 10° 85° (E) 2,089 - -36.5°
Sets 00:20:03 0° 80° (E) 3,021 - -36.5°
